Location: Bleyenkeer
(50.7667°N, 4.0333°E)
Time: 12:11:13
(UTC+00:00)

Daily predictions for brighter satellites

Satellite Brightness Start Highest point End
(mag) Time Altitude Azimuth Time Altitude Azimuth Time Altitude Azimuth
CZ-4 R/B 1.1 19:21:31 10° SSE 19:25:14 73° ENE 19:28:54 10° N
ATLAS 5 CENTAUR R/B 3.6 19:24:06 10° NNW 19:26:20 15° NNE 19:28:47 10° NE
NOSS 3-1 (C) 4.2 19:20:37 10° NW 19:27:03 56° NE 19:35:12 10° ESE
Spot 2 Rocket 4.4 19:24:10 10° ESE 19:28:32 31° ENE 19:32:56 10° N
SPOT 5 3.0 19:24:28 10° S 19:28:57 71° WSW 19:33:19 10° NNW
NOSS 3-4 (A) 3.3 19:24:36 10° SW 19:29:55 83° NW 19:35:54 10° NE
NOSS 3-4 (C) 3.3 19:25:06 10° SW 19:30:27 83° NW 19:36:28 10° NE
Cosmos 1656 Rocket 3.7 19:25:19 10° NNW 19:30:49 79° ENE 19:36:21 10° SSE
Cosmos 546 4.5 19:27:14 10° WSW 19:30:53 74° SSE 19:34:33 10° E
Cosmos 1025 Rocket 3.4 19:27:18 10° N 19:31:24 44° ENE 19:35:30 10° SSE
Helios 1A Rocket 2.6 19:29:22 10° NNE 19:32:29 44° E 19:35:33 10° S
Cosmos 2242 Rocket 3.7 19:31:07 10° NNW 19:35:35 81° W 19:39:59 10° S
CZ-4B R/B 4.0 19:33:04 10° S 19:36:50 71° WSW 19:40:45 10° NNW
PAYLOAD B 4.2 19:31:30 10° SSE 19:36:58 74° ENE 19:42:28 10° NNW
Cosmos 1733 Rocket 3.0 19:32:37 10° S 19:37:00 80° E 19:41:25 10° NNE
Terra 1.9 19:33:34 10° SSE 19:38:10 60° ENE 19:42:48 10° N
BREEZE-M DEB (TANK) 2.2 19:35:53 10° W 19:38:23 63° S 19:43:33 10° ESE
Resurs 01 Rocket 4.3 19:39:53 10° SW 19:43:02 19° W 19:46:13 10° NW
Cosmos 1821 Rocket 4.0 19:37:23 10° S 19:43:41 79° E 19:50:05 10° NNE
Cosmos 2237 Rocket 2.6 19:39:02 10° SW 19:44:43 73° WNW 19:50:27 10° NNE
Cosmos 1980 4.2 19:41:05 10° SW 19:46:42 67° WNW 19:52:21 10° NNE
Cosmos 2218 Rocket 4.3 19:43:37 10° SSW 19:49:44 72° WNW 19:55:57 10° N
CSL-04 Rocket 4.4 19:44:46 10° S 19:50:12 56° W 19:55:41 10° NNW
Cosmos 1346 Rocket 2.5 19:47:38 10° N 19:51:15 73° ENE 19:54:50 10° SSE
BREEZE-M DEB (TANK) 2.2 19:50:06 10° W 19:52:25 73° S 19:56:49 10° E
COSMOS 2455 4.0 19:47:19 10° NNW 19:52:41 32° NE 19:58:02 10° E
Meteor 2-15 Rocket 4.4 19:47:00 10° S 19:53:04 84° E 19:59:13 10° NNE
Meteor 2-16 Rocket 4.4 19:51:04 10° N 19:57:16 79° E 20:03:22 10° SSE
SL-4 R/B 3.7 19:56:08 10° SSE 19:57:34 13° SE 19:57:34 13° SE
Cosmos 1000 Rocket 4.5 19:52:06 10° N 19:58:16 75° ENE 20:04:24 10° SSE
Cosmos 1602 2.7 19:56:08 10° N 19:58:21 43° ENE 19:59:37 20° SE
Cosmos 1400 Rocket 2.9 19:54:56 10° SSW 19:58:30 68° WNW 20:02:09 10° N
Cosmos 1812 1.6 19:57:57 10° SSW 19:59:33 47° WNW 20:01:12 10° N
SJ 16-02 3.6 19:59:44 10° NNE 20:01:03 11° NE 20:02:22 10° ENE
Meteor 1-31 Rocket 4.0 19:58:14 10° SSW 20:01:31 36° W 20:04:49 10° NNW
USA 59 Rocket 1.5 19:59:57 10° WNW 20:02:57 27° SW 20:06:42 10° S
ASTEX 1 3.6 19:59:49 10° SSE 20:04:35 54° ENE 20:09:24 10° N
Cosmos 2297 3.8 20:00:16 10° NNW 20:06:01 67° ENE 20:10:44 15° SE
Cosmos 1869 3.8 20:06:01 15° SSE 20:08:24 33° E 20:11:39 10° NNE
Cosmos 1315 Rocket 4.1 20:08:55 18° ESE 20:10:02 20° E 20:12:50 10° NE
Cosmos 2369 Rocket 2.2 20:04:47 10° NNW 20:10:25 78° ENE 20:15:00 16° SE
SPOT 3 Rocket 4.3 20:08:17 16° SE 20:11:57 38° ENE 20:16:43 10° N
ADEOS 3.7 20:07:21 10° S 20:12:34 77° WSW 20:17:48 10° NNW
SL-08 R/B 3.4 20:08:49 10° NNE 20:13:43 64° ESE 20:18:34 10° S
USA 186 1.2 20:14:08 31° SE 20:14:55 49° ENE 20:17:15 10° N
Lacrosse 5 rocket 2.3 20:13:58 10° NW 20:16:49 29° N 20:19:32 11° ENE
RESURS DK-1 3.8 20:13:43 10° WSW 20:17:27 39° NW 20:21:13 10° NNE
Cosmos 2221 Rocket 3.5 20:14:14 10° N 20:18:40 88° ENE 20:22:40 13° S
YAOGAN 11 4.3 20:14:51 10° NNE 20:19:01 49° E 20:23:06 11° S
USA 234 3.4 20:12:57 10° ENE 20:19:19 52° SE 20:25:41 10° SW
Cosmos 2285 Rocket 4.0 20:14:53 10° S 20:21:08 63° ESE 20:27:24 10° NNE
SKYMED 3 4.3 20:17:50 10° NNE 20:21:44 88° WNW 20:25:38 10° SSW
Cosmos 405 Rocket 2.5 20:20:37 10° N 20:23:27 41° ENE 20:24:26 30° ESE
NOSS 3-1 (A) 4.2 20:20:15 10° NW 20:26:51 60° NE 20:33:20 17° ESE
Cosmos 921 Rocket 3.9 20:23:51 10° N 20:27:57 35° ENE 20:30:06 22° ESE
Cosmos 1943 3.8 20:23:23 12° SSE 20:28:01 33° ESE 20:33:03 10° NE
Molniya-1 3.4 20:25:59 10° SSW 20:28:43 61° SE 20:34:55 10° NE
CZ-4B R/B 3.1 20:27:34 26° ESE 20:28:58 40° ENE 20:32:11 10° N
CZ-4B R/B 3.9 20:24:47 10° S 20:30:17 56° W 20:35:52 10° NNW
SL-8 R/B 3.8 20:27:59 10° WSW 20:32:35 54° SSE 20:36:05 17° E
Cosmos 1975 Rocket 3.5 20:29:35 10° N 20:33:52 45° ENE 20:35:59 26° SE
Cosmos 1356 Rocket 4.2 20:36:34 27° ESE 20:37:29 30° E 20:40:59 10° NNE
ERS-1 Rocket 4.3 20:35:31 10° SSW 20:40:09 38° W 20:44:49 10° NNW
Cosmos 2263 4.2 20:35:53 10° NNW 20:41:33 84° WSW 20:45:14 23° SSE
CZ-2C R/B 2.7 20:44:39 35° E 20:44:53 35° ENE 20:47:34 10° N
Okean-O 3.0 20:44:32 17° S 20:47:45 62° WSW 20:52:07 10° NNW
Cosmos 2298 Rocket 4.1 20:44:42 10° SSW 20:50:01 84° WNW 20:55:23 10° NNE
Cosmos 1908 Rocket 4.0 20:47:05 10° SSW 20:51:20 59° WNW 20:55:36 10° N
Cosmos 44 3.7 20:46:17 10° SW 20:51:23 73° NW 20:56:46 10° NE
Okean O Rocket 2.3 20:53:06 17° S 20:56:16 49° W 21:00:29 10° NNW
CZ-4B R/B 3.3 20:55:25 30° SSE 20:57:48 78° ENE 21:02:34 10° NNW
ATLAS 3B R/B 4.4 20:52:05 10° NW 20:59:07 33° NNE 21:05:59 10° ENE
Ariane Rocket 3.0 20:57:13 30° SSE 20:59:42 71° ENE 21:04:44 10° N
CZ-4 R/B 4.2 20:58:33 10° WSW 20:59:43 11° W 21:00:52 10° WNW
Geosat 3.9 20:55:07 10° NNE 21:00:10 89° WNW 21:05:10 10° SSW
SL-16 R/B 2.6 20:55:10 10° SW 21:00:47 66° WNW 21:06:29 10° NNE
Cosmos 1782 Rocket 3.4 20:58:38 21° S 21:01:30 88° WNW 21:05:50 10° N
Cosmos 1934 Rocket 4.1 20:56:18 10° SSW 21:02:33 75° W 21:08:45 10° N
Spot 2 Rocket 4.4 21:03:20 14° SSW 21:07:18 43° W 21:12:06 10° NNW
Cosmos 1269 Rocket 4.0 21:02:31 10° NNW 21:07:49 80° WSW 21:10:20 32° SSE
USA 245 4.2 21:05:18 26° S 21:08:05 73° WSW 21:13:43 10° NNW
Cosmos 546 4.3 21:05:22 10° W 21:09:02 86° S 21:09:51 52° ESE
ATLAS 5 CENTAUR R/B 2.2 21:05:26 10° NW 21:09:12 44° NE 21:11:03 28° E
Cosmos 1140 Rocket 3.6 21:05:15 10° NNW 21:10:22 71° WSW 21:12:46 31° S
Terra 4.0 21:12:38 10° SW 21:16:04 20° W 21:19:32 10° NW
NOSS 3-1 (C) 4.4 21:11:14 10° NW 21:18:03 54° SW 21:23:02 25° S
Cosmos 1818 4.2 21:15:24 10° NW 21:20:42 49° NE 21:23:16 28° E
Cosmos 1862 3.1 21:18:46 10° NNW 21:22:22 72° W 21:22:56 57° SSW
Cosmos 1447 Rocket 4.4 21:18:23 10° N 21:24:42 88° E 21:27:42 33° S
Cosmos 2058 2.8 21:22:49 10° NNW 21:26:45 74° W 21:27:31 54° SSW
Meteor 2-17 Rocket 4.4 21:20:48 10° N 21:26:58 73° ENE 21:29:29 37° SSE
Cosmos 407 Rocket 3.4 21:22:12 10° NNW 21:27:21 83° ENE 21:28:57 45° SSE
Cosmos 1174 4.4 21:27:43 10° NW 21:30:21 32° WSW 21:30:21 32° WSW
Cosmos 371 Rocket 3.2 21:27:12 10° NNW 21:32:04 75° ENE 21:33:16 50° SE
ARIANE 5 R/B 4.5 21:32:43 17° ENE 21:33:35 18° ENE 21:36:34 10° NNE
SL-4 R/B 4.3 21:31:04 10° SW 21:31:15 11° SW 21:31:15 11° SW
ATLAS 2AS CENTAUR R/B 4.2 21:38:08 18° E 21:38:08 18° E 21:41:13 10° ENE
ARIANE 6 FM1 Upper Stage 4.4 21:34:49 10° NW 21:38:13 26° NNE 21:40:03 18° ENE
COSMOS 2455 2.8 21:33:10 10° NW 21:39:11 77° WSW 21:41:17 42° SSE
SJ 16-02 1.3 21:35:50 10° NNW 21:40:05 62° ENE 21:40:32 57° E
Cosmos 2251 Rocket 3.8 21:36:43 10° NNW 21:42:00 58° ENE 21:43:27 43° ESE
Cosmos 1536 Rocket 3.5 21:40:55 10° N 21:45:12 63° ENE 21:45:30 61° E
Cosmos 1315 Rocket 4.0 21:43:33 23° WSW 21:45:22 37° WNW 21:48:53 10° N
Gbstr 26 Del rocket 4.3 21:46:08 10° SW 21:48:40 28° SW 21:48:40 28° SW
Cosmos 1605 Rocket 4.5 21:47:33 17° SSW 21:52:11 57° WNW 21:58:16 10° N
Lacrosse 5 rocket 1.7 21:50:32 10° WNW 21:52:48 43° NW 21:52:48 43° NW
Cosmos 2369 Rocket 4.1 21:49:48 10° NW 21:53:46 20° W 21:56:46 14° SW
SeaSat 1 3.1 21:56:42 37° E 21:57:59 46° NE 22:02:40 10° NNW
USA 234 3.4 21:56:02 10° ENE 22:02:34 73° NNW 22:09:04 10° WSW
Cosmos 1697 Rocket 3.8 21:58:05 10° NNW 22:03:17 36° NE 22:05:24 27° E
Cosmos 2173 Rocket 3.9 22:03:21 49° SSE 22:04:59 72° E 22:11:05 10° NNE
Cosmos 921 Rocket 4.3 22:02:06 10° NW 22:05:55 30° W 22:06:41 28° WSW
Helios 1B rocket 2.7 22:09:10 51° N 22:09:10 51° N 22:11:58 10° N
Cosmos 1892 Rocket 4.3 22:04:54 10° N 22:09:00 41° ENE 22:09:00 41° ENE
Cosmos 1603 3.6 22:07:59 45° SSW 22:09:51 86° ESE 22:15:35 10° NNE
Cosmos 1943 4.0 22:06:19 10° SW 22:11:51 51° NW 22:17:23 10° NNE
Meteor 2-3 Rocket 3.6 22:07:17 10° NNW 22:12:56 90° ENE 22:14:03 59° SSE
SL-8 R/B 3.9 22:09:58 10° W 22:13:50 54° WSW 22:13:50 54° WSW
Cosmos 2151 Rocket 3.5 22:17:04 80° WSW 22:17:10 81° W 22:21:35 10° N
Okean 1 Rocket 3.1 22:17:47 66° ENE 22:17:47 66° ENE 22:21:45 10° NNE
NOSS 3-1 (A) 4.4 22:10:59 10° NW 22:17:51 50° WSW 22:20:42 37° S
Helios 1A 3.0 22:18:31 10° NNE 22:22:03 68° N 22:22:03 68° N
Cosmos 1371 Rocket 4.4 22:23:18 46° E 22:23:18 46° E 22:27:59 10° NE
Cosmos 1980 Rocket 3.8 22:18:52 10° NNW 22:23:45 28° NE 22:26:39 19° E
Okean 2 Rocket 3.0 22:24:29 85° N 22:24:29 85° N 22:28:52 10° N
Cosmos 968 Rocket 4.0 22:21:22 10° NNW 22:26:26 49° ENE 22:27:16 45° E
Cosmos 1190 Rocket 3.9 22:21:38 10° NNW 22:26:56 72° WSW 22:27:28 66° SSW
Cosmos 1455 Rocket 3.8 22:28:48 43° ENE 22:28:48 43° ENE 22:32:20 10° NNE
Cosmos 2100 Rocket 4.0 22:26:44 47° SSW 22:28:39 78° W 22:34:54 10° N
CZ-2C R/B 4.5 22:26:05 10° NNE 22:29:25 38° ENE 22:29:25 38° ENE
Tsikada Rocket 4.1 22:24:39 10° N 22:30:54 63° ENE 22:32:10 52° SE
Cosmos 2061 Rocket 4.3 22:35:45 47° ESE 22:36:31 49° E 22:42:28 10° NNE
Cosmos 972 Rocket 4.5 22:35:51 58° SSE 22:37:01 72° ESE 22:43:51 10° NNE
Meteor 1-27 4.3 22:40:55 58° ESE 22:41:18 59° E 22:46:56 10° NNE
Cosmos 2360 4.2 22:35:51 10° NW 22:41:31 65° WSW 22:42:06 61° SSW
Cosmos 1656 3.8 22:38:39 10° NW 22:43:59 55° WSW 22:44:20 53° SW
Cosmos 332 Rocket 3.7 22:45:30 10° NNW 22:50:07 78° WNW 22:50:07 78° WNW
ATLAS 5 CENTAUR R/B 2.8 22:47:22 10° WNW 22:50:11 32° W 22:50:11 32° W
ATLAS 3B R/B 3.3 22:43:39 10° NW 22:51:27 60° NE 22:55:41 28° ESE
Cosmos 1420 Rocket 4.4 22:54:22 45° WSW 22:55:38 58° WNW 23:00:53 10° NNE
Cosmos 1954 Rocket 4.4 22:52:11 10° NNW 22:57:13 49° WSW 22:57:15 49° WSW
Aureole 3 Rocket 3.9 22:58:44 55° E 22:58:52 55° E 23:05:14 10° NNE
Cosmos 676 Rocket 4.1 22:55:43 10° NNW 23:00:56 61° WSW 23:00:56 61° WSW
Cosmos 1833 Rocket 2.9 23:01:17 56° E 23:01:17 56° E 23:06:28 10° NE
Cosmos 2082 Rocket 4.3 23:02:51 14° E 23:02:51 14° E 23:05:04 10° ENE
ALOS 2 2.8 23:03:31 69° N 23:03:31 69° N 23:07:25 10° NNW
Sich 1 Rocket 4.3 23:03:46 47° WNW 23:03:46 47° WNW 23:07:58 10° N
BREEZE-M R/B 4.2 22:54:53 10° W 23:04:02 88° S 23:09:42 10° E
Cosmos 1818 4.3 22:59:08 10° NW 23:03:51 40° WSW 23:03:51 40° WSW
SL-08 R/B 4.4 23:03:25 62° SSW 23:04:31 83° W 23:10:49 10° N
Spot 4 3.9 23:08:14 70° WNW 23:08:14 70° WNW 23:12:43 10° NNW
Meteor 2-12 Rocket 4.4 23:03:11 10° NNW 23:09:13 71° W 23:10:02 63° SW
ARIANE 5 R/B 3.0 23:10:04 57° NW 23:10:04 57° NW 23:13:48 10° NNW
CZ-2C R/B 4.0 23:04:34 10° NNE 23:09:16 37° E 23:09:16 37° E
Cosmos 1725 Rocket 4.2 23:08:51 48° SW 23:10:29 63° WNW 23:16:45 10° N
PSLV R/B 4.3 23:11:32 10° NNE 23:14:38 46° NE 23:14:38 46° NE
DEBRIS 4.2 23:14:40 42° WSW 23:16:36 77° SSE 23:33:04 10° E
Cosmos 2228 3.6 23:18:31 54° N 23:18:31 54° N 23:21:47 10° N
ARIANE 6 FM1 Upper Stage 3.9 23:13:38 10° NW 23:16:01 35° NW 23:16:01 35° NW
SJ 16-02 3.5 23:14:58 10° WNW 23:17:01 16° W 23:17:01 16° W
USA 229 DEB 3.9 23:10:19 10° NW 23:17:44 89° NE 23:20:33 46° SE
USA 229 3.9 23:10:22 10° NW 23:17:47 88° NE 23:20:40 45° SE
Cosmos 2233 Rocket 4.0 23:18:32 59° SW 23:19:42 75° W 23:25:59 10° N
Cosmos 1850 Rocket 3.9 23:14:54 10° NNW 23:20:06 83° ENE 23:20:06 83° ENE
Cosmos 2056 Rocket 3.8 23:20:45 56° WSW 23:21:32 63° WNW 23:26:56 10° NNE
SL-16 R/B 4.4 23:17:48 10° NNW 23:22:07 22° NE 23:26:25 10° E
ATLAS 2AS CENTAUR R/B 2.6 23:25:29 62° S 23:26:38 75° SE 23:33:27 10° NE
Cosmos 1331 Rocket 4.1 23:27:28 63° E 23:27:28 63° E 23:32:19 10° NNE
Cosmos 1624 Rocket 4.4 23:28:33 52° W 23:29:13 56° WNW 23:34:20 10° NNE
CZ-2C R/B 2.9 23:29:07 56° E 23:29:45 60° ENE 23:35:05 10° N
Cosmos 292 Rocket 4.2 23:25:39 10° NNW 23:29:43 55° WNW 23:29:43 55° WNW
SeaSat 1 3.6 23:36:18 32° W 23:36:18 32° W 23:39:56 10° NW
Cosmos 1626 Rocket 4.1 23:32:31 10° NNW 23:35:57 56° NNW 23:35:57 56° NNW
Cosmos 2098 Rocket 4.3 23:36:56 43° E 23:37:13 43° E 23:42:28 10° NNE
Nadezhda 4 Rocket 4.1 23:35:53 10° N 23:41:59 61° ENE 23:43:04 53° ESE
Timation 1 Rocket 4.4 23:42:54 59° ESE 23:42:59 59° ESE 23:48:54 10° NE
ACS3 Solar Sail 3.3 23:38:46 10° NE 23:43:30 23° E 23:44:47 22° ESE
Cosmos 1782 4.4 23:45:06 27° NNW 23:45:06 27° NNW 23:47:10 10° N
Meteor 1-25 Rocket 4.3 23:38:23 10° N 23:44:13 69° ENE 23:44:52 63° ESE
Cosmos 1110 Rocket 3.9 23:44:35 88° NW 23:44:35 88° NW 23:49:55 10° NNE
USA 234 4.0 23:38:54 10° ENE 23:45:12 52° N 23:51:31 10° WNW
Cosmos 1697 Rocket 3.0 23:41:59 10° NW 23:47:06 50° W 23:47:06 50° W
Cosmos 2151 3.7 23:49:31 10° NNW 23:52:40 49° NNW 23:52:40 49° NNW
